Regional Weather Roundup
Issued by NWS

Home | Current Version | Previous Version | Text Only | Print | Product List | Glossary On
Versions: 1 2 3 4 5 6 7 8 9 10 11 12 13 14 15 16 17 18 19 20 21 22 23 24 25 26 27 28 29 30 31 32 33 34 35 36 37 38 39 40 41 42 43 44 45 46 47 48 49 50
000
ASUS43 KOAX 022202
RWRNE

WEATHER ROUNDUP FOR NEBRASKA
NATIONAL WEATHER SERVICE OMAHA NE
500 PM CDT THU JUL 02 2015

NOTES: SATELLITE DATA IS BEING USED TO AUGMENT CLOUD COVER ABOVE
       12000 FEET.
       "FAIR" INDICATES FEW OR NO CLOUDS BELOW 12,000 FEET WITH NO
       SIGNIFICANT WEATHER AND/OR OBSTRUCTIONS TO VISIBILITY.

  * THESE STATIONS DO NOT REPORT WEATHER SUCH AS RAIN...SNOW OR FOG.

NEZ001>004-019>022-054>056-022300-
NEBRASKA PANHANDLE

CITY           SKY/WX    TMP DP  RH WIND       PRES   REMARKS
SCOTTSBLUFF    MOSUNNY   81  53  37 NE12      30.10F
ALLIANCE       MOSUNNY   80  60  50 NE10      30.10S
CHADRON        MOSUNNY   81  60  48 NE6       30.07F
KIMBALL          N/A    N/A N/A N/A MISG        N/A
SIDNEY         SUNNY     83  55  38 N9G22     30.13F
$$

NEZ057>060-069>072-079>082-022300-
SOUTHWEST NEBRASKA

CITY           SKY/WX    TMP DP  RH WIND       PRES   REMARKS
NORTH PLATTE   MOSUNNY   80  60  50 N12       30.01S
IMPERIAL       MOSUNNY   86  56  35 N12       30.05F
LEXINGTON      MOSUNNY   84  64  51 N17       29.98S
MCCOOK         MOSUNNY   88  59  37 N8        29.99S
$$

NEZ005>010-023>029-035>040-094-022300-
NORTH CENTRAL NEBRASKA

CITY           SKY/WX    TMP DP  RH WIND       PRES   REMARKS
VALENTINE      MOSUNNY   80  57  45 N10G20    30.01F
AINSWORTH      MOSUNNY   79  59  49 N16G24    30.01S
BROKEN BOW     MOSUNNY   83  58  42 N18G26    29.97S
O`NEILL        PTSUNNY   74  66  75 NE8       29.98S
ORD            SUNNY     82  60  47 N18G28    29.93S
$$

NEZ041-046>049-061>064-073>077-083>087-022300-
SOUTH CENTRAL NEBRASKA

CITY           SKY/WX    TMP DP  RH WIND       PRES   REMARKS
GRAND ISLAND   MOSUNNY   75  67  76 SE5       29.92S
AURORA         MOSUNNY   75  67  76 CALM      29.90F
HASTINGS       CLOUDY    83  63  50 NW16      29.91F
KEARNEY *      PTSUNNY   84  63  48 W16G22    29.93F
$$

NEZ011>018-030>034-042>045-022300-
NORTHEAST NEBRASKA

CITY           SKY/WX    TMP DP  RH WIND       PRES   REMARKS
NORFOLK        HVY RAIN  65  64  97 E9        29.95S VSB 3/4
BLAIR          CLOUDY    66  62  87 E8        29.96F FOG
COLUMBUS *     CLOUDY    72  63  73 E13       29.94F
FREMONT        CLOUDY    68  64  87 E9        29.96S HAZE
TEKAMAH        CLOUDY    70  64  81 SE8       29.96S
$$

NEZ050>053-065>068-078-088>093-022300-
SOUTHEAST NEBRASKA

CITY           SKY/WX    TMP DP  RH WIND       PRES   REMARKS
LINCOLN        CLOUDY    75  67  76 NE12      29.93S
OMAHA EPPLEY   CLOUDY    70  65  84 E7        29.96S HAZE
FALLS CITY     LGT RAIN  70  68  93 E5        29.94R
$$

NEZ044-045-051>053-067-022300-
OMAHA AREA

CITY           SKY/WX    TMP DP  RH WIND       PRES   REMARKS
OMAHA EPPLEY   CLOUDY    70  65  84 E7        29.96S HAZE
BLAIR          CLOUDY    66  62  87 E8        29.96F FOG
FREMONT        CLOUDY    68  64  87 E9        29.96S HAZE
MILLARD        CLOUDY    70  65  85 E5        29.94F
$$


USA.gov is the U.S. government's official web portal to all federal, state and local government web resources and services.